Location: Monroe
(41.9160°N, 83.3980°W)
Time: 03:23:48
(UTC-04:00)

ISS - All Passes

Search period start: 31 July 2014 00:00
Search period end: 10 August 2014 00:00
Orbit: 411 x 419 km, 51.6° (Epoch: 31 July)

Date Brightness Start Highest point End Pass type
(mag) Time Alt. Az. Time Alt. Az. Time Alt. Az.
31 Jul - 00:28:27 10° WSW 00:31:43 53° NNW 00:35:01 10° NE visible
31 Jul - 02:06:37 10° WNW 02:09:00 18° N 02:11:24 10° NE visible
31 Jul - 03:44:21 10° NW 03:46:40 17° N 03:48:59 10° NE visible
31 Jul - 05:20:45 10° NW 05:24:00 45° NNE 05:27:15 10° ESE visible
31 Jul - 06:57:49 10° W 07:00:33 23° SW 07:03:17 10° S daylight
31 Jul - 22:05:38 10° SSE 22:06:38 11° SE 22:07:38 10° ESE night (unlit)
31 Jul - 23:39:31 10° SW 23:42:51 88° NW 23:46:13 10° NE night (unlit)
01 Aug - 01:17:18 10° WNW 01:19:57 21° NNW 01:22:36 10° NE visible
01 Aug - 02:55:26 10° NW 02:57:35 16° N 02:59:44 10° NE visible
01 Aug - 04:32:01 10° NW 04:35:04 31° NNE 04:38:07 10° E visible
01 Aug - 06:08:40 10° WNW 06:11:51 40° SW 06:15:01 10° SSE daylight
01 Aug - 22:50:48 10° SW 22:54:03 53° SE 22:57:19 10° ENE visible
02 Aug - 00:28:01 10° W 00:30:56 27° NNW 00:33:51 10° NE visible
02 Aug - 02:06:22 10° NW 02:08:28 16° N 02:10:35 10° NE visible
02 Aug - 03:43:17 10° NW 03:46:04 24° NNE 03:48:51 10° ENE visible
02 Aug - 05:19:42 10° WNW 05:23:04 72° SW 05:26:24 10° SE visible
02 Aug - 22:02:22 10° SSW 22:05:18 30° SE 22:08:16 10° ENE visible
02 Aug - 23:38:49 10° W 23:41:57 37° NNW 23:45:06 10° NE visible
03 Aug - 01:17:09 10° NW 01:19:22 16° N 01:21:35 10° NE visible
03 Aug - 02:54:30 10° NW 02:57:01 19° NNE 02:59:32 10° ENE visible
03 Aug - 04:30:52 10° NW 04:34:13 67° NNE 04:37:33 10° ESE visible
03 Aug - 06:08:32 10° W 06:10:34 15° SW 06:12:36 10° SSW daylight
03 Aug - 21:14:20 10° S 21:16:36 17° SE 21:18:53 10° E visible
03 Aug - 22:49:44 10° WSW 22:53:01 58° NNW 22:56:20 10° NE visible
04 Aug - 00:27:50 10° WNW 00:30:16 18° NNW 00:32:42 10° NE visible
04 Aug - 02:05:39 10° NW 02:07:55 17° N 02:10:11 10° NE visible
04 Aug - 03:42:04 10° NW 03:45:17 42° NNE 03:48:30 10° E visible
04 Aug - 05:19:02 10° WNW 05:21:53 26° SW 05:24:43 10° SSE visible
04 Aug - 22:00:49 10° SW 22:04:08 84° SE 22:07:29 10° ENE visible
04 Aug - 23:38:30 10° WNW 23:41:11 22° NNW 23:43:53 10° NE visible
05 Aug - 01:16:41 10° NW 01:18:48 16° N 01:20:55 10° NE visible
05 Aug - 02:53:18 10° NW 02:56:18 29° NNE 02:59:18 10° E night (unlit)
05 Aug - 04:29:54 10° WNW 04:33:08 45° SW 04:36:21 10° SSE visible
05 Aug - 21:12:07 10° SW 21:15:19 47° SE 21:18:32 10° ENE visible
05 Aug - 22:49:11 10° W 22:52:08 29° NNW 22:55:07 10° NE visible
06 Aug - 00:27:33 10° NW 00:29:39 16° N 00:31:46 10° NE visible
06 Aug - 02:04:32 10° NW 02:07:16 22° NNE 02:09:59 10° ENE visible
06 Aug - 03:40:56 10° WNW 03:44:18 81° SW 03:47:39 10° SE night (unlit)
06 Aug - 20:23:42 10° SSW 20:26:32 26° SE 20:29:24 10° ENE daylight
06 Aug - 21:59:58 10° W 22:03:08 40° NNW 22:06:20 10° NE visible
06 Aug - 23:38:17 10° NW 23:40:31 17° N 23:42:46 10° NE visible
07 Aug - 01:15:43 10° NW 01:18:10 19° NNE 01:20:37 10° ENE visible
07 Aug - 02:52:05 10° NW 02:55:24 60° NNE 02:58:43 10° ESE night (unlit)
07 Aug - 04:29:33 10° W 04:31:48 17° SW 04:34:03 10° S night (unlit)
07 Aug - 19:35:47 10° S 19:37:50 15° SE 19:39:52 10° E daylight
07 Aug - 21:10:53 10° WSW 21:14:11 64° NNW 21:17:31 10° NE visible
07 Aug - 22:48:55 10° WNW 22:51:23 19° NNW 22:53:52 10° NE visible
08 Aug - 00:26:49 10° NW 00:29:02 16° N 00:31:16 10° NE visible
08 Aug - 02:03:16 10° NW 02:06:26 38° NNE 02:09:36 10° E visible
08 Aug - 03:40:07 10° WNW 03:43:05 29° SW 03:46:01 10° SSE night (unlit)
08 Aug - 20:21:59 10° SW 20:25:17 75° SE 20:28:37 10° ENE daylight
08 Aug - 21:59:33 10° WNW 22:02:17 23° NNW 22:05:02 10° NE visible
08 Aug - 23:37:47 10° NW 23:39:53 15° N 23:41:59 10° NE visible
09 Aug - 01:14:28 10° NW 01:17:25 27° NNE 01:20:21 10° E visible
09 Aug - 02:51:00 10° WNW 02:54:16 51° SW 02:57:32 10° SE night (unlit)
09 Aug - 19:33:18 10° SSW 19:36:27 41° SE 19:39:36 10° ENE daylight
09 Aug - 21:10:14 10° W 21:13:13 30° NNW 21:16:14 10° NE visible
09 Aug - 22:48:36 10° NW 22:50:43 16° N 22:52:50 10° NE visible
